When you browse on this site, cookies collect data to enhance your experience and personalize the content and advertising you see.
Visit our Privacy Policy to learn more. By continuing to use the site, you agree to this use of cookies and data.
  • In Hungary
  • List of Countries
  • For 7 days
  • Water Temperature
  • Weather Map
  • News
  • Weather Widgets
  • user-avatar
    Login

    Hourly Weather Golicino

    Today, 27 January, Monday

    Time Temperature Precipitation Wind Pressure Humidity
    00:00 -9°C° 0 mm 4 mps 749 mmHg 90%
    01:00 -8°C° 0 mm 5 mps 749 mmHg 91%
    02:00 -8°C° 0 mm 5 mps 748 mmHg 91%
    03:00 -8°C° 0 mm 6 mps 747 mmHg 91%
    04:00 -8°C° 0 mm 7 mps 747 mmHg 91%
    05:00 -7°C° 0 mm 7 mps 746 mmHg 91%
    06:00 -7°C° 0 mm 8 mps 745 mmHg 91%
    07:00 -5°C° 0.1 mm 8 mps 745 mmHg 91%
    08:00 -4°C° 0.1 mm 8 mps 745 mmHg 91%
    09:00 -3°C° 0 mm 9 mps 744 mmHg 92%
    10:00 -2°C° 0.1 mm 8 mps 745 mmHg 94%
    11:00 -2°C° 0.1 mm 8 mps 746 mmHg 95%
    12:00 -2°C° 0.1 mm 8 mps 746 mmHg 96%
    13:00 -2°C° 0.1 mm 7 mps 747 mmHg 92%
    14:00 -3°C° 0.1 mm 6 mps 747 mmHg 88%
    15:00 -3°C° 0.1 mm 6 mps 748 mmHg 84%
    16:00 -5°C° 0 mm 5 mps 749 mmHg 84%
    17:00 -7°C° 0 mm 4 mps 750 mmHg 85%
    18:00 -8°C° 0 mm 3 mps 751 mmHg 86%
    19:00 -9°C° 0 mm 3 mps 751 mmHg 87%
    20:00 -12°C° 0 mm 3 mps 752 mmHg 87%
    21:00 -13°C° 0 mm 3 mps 753 mmHg 87%
    22:00 -12°C° 0 mm 2 mps 753 mmHg 87%
    23:00 -13°C° 0 mm 2 mps 754 mmHg 86%

    Tomorrow, 28 January, Tuesday

    Time Temperature Precipitation Wind Pressure Humidity
    00:00 -11°C° 0 mm 1 mps 754 mmHg 86%
    01:00 -11°C° 0 mm 1 mps 755 mmHg 86%
    02:00 -11°C° 0 mm 1 mps 755 mmHg 85%
    03:00 -11°C° 0 mm 1 mps 756 mmHg 85%
    04:00 -11°C° 0 mm 1 mps 756 mmHg 86%
    05:00 -11°C° 0 mm 1 mps 756 mmHg 87%
    06:00 -12°C° 0 mm 2 mps 756 mmHg 88%
    07:00 -12°C° 0 mm 2 mps 756 mmHg 89%
    08:00 -13°C° 0 mm 3 mps 757 mmHg 89%
    09:00 -13°C° 0 mm 3 mps 757 mmHg 90%
    10:00 -12°C° 0 mm 3 mps 757 mmHg 91%
    11:00 -12°C° 0 mm 4 mps 757 mmHg 92%
    12:00 -11°C° 0 mm 4 mps 757 mmHg 93%
    13:00 -11°C° 0.1 mm 4 mps 757 mmHg 93%
    14:00 -11°C° 0.1 mm 4 mps 756 mmHg 94%
    15:00 -11°C° 0.1 mm 4 mps 756 mmHg 94%
    16:00 -11°C° 0.1 mm 4 mps 756 mmHg 94%
    17:00 -12°C° 0.1 mm 4 mps 756 mmHg 94%
    18:00 -13°C° 0.1 mm 5 mps 756 mmHg 95%
    19:00 -12°C° 0.1 mm 4 mps 756 mmHg 95%
    20:00 -12°C° 0.1 mm 4 mps 756 mmHg 95%
    21:00 -12°C° 0.1 mm 4 mps 756 mmHg 95%
    22:00 -11°C° 0.3 mm 4 mps 756 mmHg 95%
    23:00 -11°C° 0.3 mm 4 mps 756 mmHg 95%

    Day after tomorrow, 29 January, Wednesday

    Time Temperature Precipitation Wind Pressure Humidity
    00:00 -11°C° 0.3 mm 4 mps 756 mmHg 95%
    01:00 -10°C° 0.3 mm 4 mps 756 mmHg 95%
    02:00 -10°C° 0.3 mm 4 mps 755 mmHg 95%
    03:00 -10°C° 0.3 mm 4 mps 755 mmHg 95%
    04:00 -10°C° 0.3 mm 4 mps 755 mmHg 95%
    05:00 -9°C° 0.3 mm 4 mps 755 mmHg 95%
    06:00 -9°C° 0.3 mm 4 mps 755 mmHg 95%
    07:00 -9°C° 0.3 mm 4 mps 755 mmHg 95%
    08:00 -8°C° 0.3 mm 4 mps 755 mmHg 95%
    09:00 -8°C° 0.3 mm 5 mps 755 mmHg 95%
    10:00 -8°C° 0.3 mm 5 mps 755 mmHg 95%
    11:00 -7°C° 0.3 mm 5 mps 755 mmHg 95%
    12:00 -7°C° 0.3 mm 5 mps 754 mmHg 95%
    13:00 -7°C° 0.1 mm 5 mps 754 mmHg 95%
    14:00 -8°C° 0.1 mm 5 mps 754 mmHg 95%
    15:00 -8°C° 0.1 mm 5 mps 754 mmHg 95%
    16:00 -8°C° 0.1 mm 4 mps 754 mmHg 95%
    17:00 -9°C° 0.1 mm 4 mps 754 mmHg 95%
    18:00 -9°C° 0.1 mm 4 mps 753 mmHg 95%
    19:00 -9°C° 0.2 mm 4 mps 753 mmHg 95%
    20:00 -11°C° 0.2 mm 5 mps 753 mmHg 95%
    21:00 -11°C° 0.2 mm 5 mps 753 mmHg 95%
    22:00 -11°C° 0.5 mm 5 mps 752 mmHg 95%
    23:00 -10°C° 0.5 mm 5 mps 752 mmHg 95%

    30 January, Thursday

    Time Temperature Precipitation Wind Pressure Humidity
    00:00 -10°C° 0.5 mm 5 mps 751 mmHg 95%
    01:00 -10°C° 0.3 mm 5 mps 751 mmHg 95%
    02:00 -8°C° 0.3 mm 5 mps 751 mmHg 95%
    03:00 -8°C° 0.3 mm 5 mps 750 mmHg 96%
    04:00 -7°C° 0.3 mm 5 mps 750 mmHg 96%
    05:00 -6°C° 0.3 mm 5 mps 750 mmHg 96%
    06:00 -5°C° 0.3 mm 5 mps 749 mmHg 96%
    07:00 -5°C° 0.4 mm 5 mps 749 mmHg 97%
    08:00 -4°C° 0.4 mm 5 mps 749 mmHg 97%
    09:00 -4°C° 0.4 mm 6 mps 749 mmHg 97%
    10:00 -4°C° 0.6 mm 6 mps 749 mmHg 97%
    11:00 -4°C° 0.6 mm 6 mps 748 mmHg 97%
    12:00 -3°C° 0.6 mm 6 mps 748 mmHg 98%
    13:00 -3°C° 0.7 mm 6 mps 748 mmHg 98%
    14:00 -3°C° 0.7 mm 6 mps 748 mmHg 98%
    15:00 -3°C° 0.7 mm 6 mps 748 mmHg 98%
    16:00 -2°C° 0 mm 5 mps 748 mmHg 97%
    17:00 -2°C° 0 mm 5 mps 748 mmHg 97%
    18:00 -2°C° 0 mm 5 mps 748 mmHg 96%
    19:00 -2°C° 0 mm 5 mps 748 mmHg 96%
    20:00 -2°C° 0 mm 5 mps 748 mmHg 96%
    21:00 -2°C° 0 mm 4 mps 748 mmHg 97%
    22:00 -2°C° 0 mm 4 mps 748 mmHg 97%
    23:00 -2°C° 0 mm 4 mps 748 mmHg 97%

    31 January, Friday

    Time Temperature Precipitation Wind Pressure Humidity
    00:00 -2°C° 0 mm 5 mps 747 mmHg 97%
    01:00 -2°C° 0 mm 5 mps 747 mmHg 97%
    02:00 -4°C° 0 mm 5 mps 747 mmHg 97%
    03:00 -4°C° 0 mm 5 mps 747 mmHg 97%
    04:00 -4°C° 0.1 mm 5 mps 747 mmHg 97%
    05:00 -3°C° 0.1 mm 4 mps 746 mmHg 97%
    06:00 -3°C° 0.1 mm 4 mps 746 mmHg 97%
    07:00 -5°C° 0.3 mm 5 mps 746 mmHg 97%
    08:00 -5°C° 0.3 mm 5 mps 746 mmHg 97%
    09:00 -5°C° 0.3 mm 5 mps 745 mmHg 96%
    10:00 -4°C° 0.1 mm 6 mps 745 mmHg 96%
    11:00 -4°C° 0.1 mm 6 mps 744 mmHg 96%
    12:00 -3°C° 0.1 mm 6 mps 744 mmHg 97%
    13:00 -3°C° 0.1 mm 6 mps 744 mmHg 97%
    14:00 -3°C° 0.1 mm 6 mps 743 mmHg 97%
    15:00 -2°C° 0.1 mm 6 mps 743 mmHg 97%
    16:00 -3°C° 0.1 mm 6 mps 743 mmHg 97%
    17:00 -3°C° 0.1 mm 6 mps 743 mmHg 96%
    18:00 -3°C° 0.1 mm 6 mps 743 mmHg 96%
    19:00 -3°C° 0.2 mm 6 mps 743 mmHg 96%
    20:00 -3°C° 0.2 mm 6 mps 743 mmHg 97%
    21:00 -2°C° 0.2 mm 5 mps 743 mmHg 97%
    22:00 -3°C° 0.1 mm 4 mps 743 mmHg 97%
    23:00 -2°C° 0.1 mm 3 mps 743 mmHg 97%

    1 February, Saturday

    Time Temperature Precipitation Wind Pressure Humidity
    00:00 -3°C° 0.1 mm 2 mps 743 mmHg 97%
    01:00 -3°C° 0.1 mm 2 mps 743 mmHg 97%
    02:00 -3°C° 0.1 mm 2 mps 743 mmHg 97%
    03:00 -3°C° 0.1 mm 2 mps 743 mmHg 97%
    04:00 -2°C° 0.1 mm 2 mps 743 mmHg 97%
    05:00 -2°C° 0.1 mm 2 mps 743 mmHg 97%
    06:00 -2°C° 0.1 mm 2 mps 743 mmHg 97%
    07:00 -2°C° 0 mm 3 mps 743 mmHg 96%
    08:00 -4°C° 0 mm 3 mps 744 mmHg 95%
    09:00 -4°C° 0 mm 3 mps 744 mmHg 95%
    10:00 -4°C° 0 mm 3 mps 744 mmHg 92%
    11:00 -2°C° 0 mm 3 mps 744 mmHg 90%
    12:00 -2°C° 0 mm 3 mps 744 mmHg 88%
    13:00 -1°C° 0 mm 3 mps 745 mmHg 88%
    14:00 -1°C° 0 mm 3 mps 745 mmHg 88%
    15:00 -1°C° 0 mm 2 mps 745 mmHg 89%
    16:00 -2°C° 0 mm 2 mps 745 mmHg 90%
    17:00 -2°C° 0 mm 2 mps 746 mmHg 91%
    18:00 -3°C° 0 mm 2 mps 746 mmHg 92%
    19:00 -3°C° 0 mm 2 mps 746 mmHg 92%
    20:00 -4°C° 0 mm 2 mps 747 mmHg 92%
    21:00 -4°C° 0 mm 2 mps 747 mmHg 93%
    22:00 -5°C° 0 mm 2 mps 747 mmHg 93%
    23:00 -6°C° 0 mm 2 mps 747 mmHg 93%
    Show more